Temp
96 94 93 91 91 92 92 91 90 90 91 91 90 91 92 91 89 89 88 87 86 85 86 86 86 86 86 86 86 86 86 86 86 86 85 85 86 85 85 85 85 84 84 84 84 83 85 85 84 84 84 83 83 82 81 82 82 82 81 80 80 79 80
95 95 94 94 93 93 92 92 91 92 93 92 91 90 92 91 89 89 88 87 86 86 86 86 86 86 86 86 86 86 86 86 86 85 86 85 85 85 86 85 85 84 84 84 84 84 85 86 85 84 83 83 83 82 83 81 81 80 80 79 79 79 79
94 95 95 94 95 94 91 93 92 93 94 94 93 92 91 89 89 89 88 88 87 86 87 87 86 87 87 86 86 86 86 87 86 86 86 86 87 89 87 86 86 85 86 86 85 85 85 85 85 84 84 83 83 82 81 81 80 80 80 79 79 78 77
93 96 95 95 94 93 93 93 93 95 97 97 95 94 91 89 90 90 90 89 87 87 86 87 87 87 87 86 86 86 86 86 87 87 88 87 87 87 86 86 86 86 85 86 86 86 86 85 85 84 84 82 82 82 82 81 81 80 80 79 78 78 77
95 95 95 95 96 94 94 94 94 94 97 99 96 92 91 91 92 92 91 91 91 88 89 89 90 89 88 88 88 87 87 87 87 87 88 88 87 87 86 87 86 87 86 87 85 84 83 84 84 83 83 82 82 81 81 81 81 79 79 79 77 78 78
95 93 94 96 98 96 95 96 98 99 98 98 97 94 94 95 95 95 94 91 91 91 89 89 88 88 87 88 88 88 87 87 87 87 87 87 86 87 87 87 87 87 87 86 86 85 84 84 84 83 83 84 84 83 82 81 81 81 79 78 78 78 78
92 95 94 96 96 97 97 97 99 100 99 98 99 97 96 96 95 95 96 94 93 90 90 90 90 89 88 88 88 87 86 87 87 88 88 88 88 87 86 87 86 87 87 86 85 85 85 84 83 83 83 83 82 82 80 79 80 80 79 77 77 77 78
96 95 94 96 98 100 100 98 99 99 97 96 98 98 97 96 96 96 95 95 94 93 92 92 91 89 88 88 89 88 88 88 89 88 88 88 88 87 87 87 86 86 86 86 85 85 86 84 84 83 83 83 81 81 81 80 79 81 79 77 77 77 79
96 95 96 98 99 100 99 97 96 95 91 91 94 95 96 96 96 96 96 95 95 93 93 94 93 92 89 88 88 88 88 89 88 88 88 88 89 90 90 88 87 87 86 86 87 85 85 84 84 83 82 82 81 80 80 79 79 79 79 77 77 76 77
93 93 94 98 98 99 96 95 94 90 89 89 91 92 94 95 95 96 96 96 96 95 94 94 95 93 90 89 89 89 88 88 88 89 90 90 90 90 91 91 89 88 87 87 87 86 84 84 84 83 81 81 80 80 80 79 79 79 79 78 78 77 76
92 91 92 95 95 94 94 94 91 89 89 88 90 94 93 94 94 96 95 96 96 96 96 95 95 94 92 91 91 91 88 89 90 89 89 90 91 91 92 92 91 89 88 88 87 86 85 83 84 82 81 81 80 80 79 79 79 78 79 79 79 78 78
91 92 91 92 92 93 93 90 89 88 89 89 91 94 91 91 95 96 96 96 98 97 96 96 97 96 93 92 91 89 89 89 90 90 90 90 90 91 92 92 90 90 89 89 88 86 86 84 83 82 81 81 80 80 80 79 79 78 79 80 79 78 78
93 91 92 94 91 92 90 89 88 89 90 93 95 94 94 94 95 96 93 95 98 98 97 96 96 94 94 93 92 89 89 90 89 88 90 89 89 90 90 91 92 91 90 90 89 87 85 84 83 82 82 81 81 81 80 79 79 78 78 78 78 77 77
91 94 95 93 93 91 90 90 90 90 91 93 94 94 95 96 96 95 94 95 97 99 99 98 96 94 92 91 90 89 90 90 88 88 88 88 87 88 89 89 89 88 87 87 87 87 86 85 83 83 82 81 81 80 80 79 79 78 78 77 77 77 77
94 95 94 94 91 91 91 91 91 91 92 93 95 94 95 95 95 94 94 96 96 101 100 97 94 93 92 90 89 88 89 88 89 88 88 87 87 87 87 87 87 87 86 85 85 86 86 86 84 82 81 81 81 80 80 80 79 79 78 77 77 77 77
98 96 95 94 92 93 91 91 91 91 91 91 93 92 95 93 92 95 95 96 98 97 100 95 93 91 92 91 89 89 89 88 88 88 87 86 86 85 86 86 86 86 85 85 85 85 85 85 83 83 82 81 80 80 80 79 79 74 69 72 77 77 78
98 99 97 93 91 92 91 91 91 91 90 90 91 92 93 93 93 95 99 99 100 97 99 97 92 92 92 90 90 90 89 88 87 87 86 86 86 85 85 85 85 85 84 84 84 84 83 83 82 83 82 81 80 80 79 79 79 68 66 69 72 77 77
96 94 95 95 93 92 90 91 90 90 91 93 94 93 93 92 94 96 97 99 99 101 102 97 95 94 90 91 90 89 88 88 87 86 86 86 85 85 85 85 85 84 84 84 84 83 83 83 82 82 82 81 81 80 80 80 70 64 66 68 68 72 78
96 97 94 92 91 90 93 94 93 91 93 95 94 94 96 95 96 93 95 95 96 97 100 100 98 92 90 91 90 89 88 87 87 86 85 85 85 85 85 84 84 84 84 84 83 82 81 81 81 81 81 81 80 80 80 81 66 65 65 66 66 67 72
97 99 100 98 95 94 93 92 93 93 94 93 94 98 98 96 96 95 97 98 96 96 95 94 94 92 90 90 89 89 88 87 86 86 85 85 85 85 84 84 83 84 84 84 82 81 80 81 80 80 80 79 79 78 79 80 65 64 63 65 65 66 69
93 95 96 96 93 95 92 92 92 91 92 95 96 95 95 96 97 96 97 97 96 94 91 91 91 90 90 89 89 87 85 86 86 85 85 84 84 83 83 83 83 83 83 84 82 80 79 80 79 79 80 80 79 79 79 81 63 62 62 63 64 65 68
98 99 98 100 94 92 91 94 93 94 92 94 95 96 97 96 98 98 98 100 97 94 92 91 90 90 90 87 85 84 84 84 84 84 83 83 83 83 82 83 82 82 82 83 83 82 82 81 81 79 79 79 78 79 77 79 61 63 62 63 63 64 70
103 101 101 98 100 95 93 95 95 96 93 94 96 96 97 98 98 97 97 97 97 92 93 92 90 89 88 85 84 84 84 84 83 82 83 83 82 82 82 82 82 82 82 82 82 83 81 80 81 79 79 78 78 78 77 77 62 61 61 62 62 63 71
104 103 103 104 99 99 94 95 96 96 96 95 96 97 97 98 96 93 92 93 94 93 92 91 90 90 88 86 84 84 84 84 83 82 82 81 81 81 81 83 82 82 82 82 82 82 83 82 80 79 79 78 78 79 77 79 64 58 59 61 60 64 72
104 105 104 103 103 102 98 95 95 97 95 95 96 96 95 95 94 92 91 91 91 91 90 89 89 89 88 87 85 83 83 84 83 83 82 81 81 82 81 82 82 83 83 82 82 82 82 82 81 80 79 80 79 75 77 80 66 55 58 57 57 65 73
99 101 102 103 104 102 95 92 92 94 96 94 92 95 94 94 93 91 90 90 92 92 91 90 89 89 90 87 84 83 83 84 83 82 82 81 81 81 82 82 82 82 82 81 81 80 81 81 81 80 81 81 79 78 79 79 70 61 55 55 55 61 73
95 99 100 104 102 93 94 93 93 94 97 94 92 95 95 93 93 90 89 90 89 90 92 92 90 89 88 86 85 84 83 83 83 82 82 82 81 82 82 82 80 80 79 81 82 80 79 80 81 80 80 82 81 81 80 81 75 64 54 54 55 58 64
93 98 105 98 94 93 95 96 92 93 96 92 93 94 94 92 90 89 88 89 89 90 93 91 90 88 86 86 85 84 83 83 82 82 82 81 81 80 80 80 79 79 80 81 80 78 78 78 78 78 78 79 80 79 78 77 75 70 55 55 53 56 58
90 89 91 96 94 96 95 93 92 94 94 95 97 97 95 94 89 88 87 87 88 91 90 89 88 86 85 85 85 84 84 82 81 80 81 80 81 80 79 79 78 78 78 78 78 77 77 77 77 77 77 76 76 77 77 77 74 66 64 55 53 53 55
89 91 92 95 98 96 95 91 90 90 93 96 95 96 94 92 87 86 86 86 87 89 88 87 86 85 84 84 83 83 83 83 82 81 81 81 81 80 79 78 78 78 77 78 78 77 76 76 76 76 77 76 76 77 78 77 76 66 63 60 54 53 53
89 89 91 90 97 93 92 90 88 90 91 93 92 92 91 89 86 85 85 86 86 85 85 85 84 83 83 83 82 82 82 81 80 80 81 81 80 79 78 79 79 77 77 79 78 77 76 76 77 76 76 76 76 76 76 75 75 72 63 60 56 54 52
90 89 91 94 92 90 91 92 91 92 91 90 90 87 87 88 88 84 84 86 85 85 84 83 82 82 81 81 81 81 81 79 80 80 80 80 80 80 80 78 78 77 77 77 77 76 76 75 76 76 76 76 77 76 76 74 72 68 64 60 58 56 53
71 71 73 73 79 86 90 91 92 90 90 87 89 90 90 88 87 85 85 85 86 86 84 82 81 80 80 80 80 79 79 79 80 81 80 80 81 81 79 79 78 77 76 77 77 77 75 76 76 75 76 76 77 77 76 72 71 69 66 66 64 63 57
70 71 71 75 82 87 88 87 88 88 87 84 86 88 89 88 87 86 87 87 87 86 84 81 81 80 80 80 80 79 80 80 78 79 80 80 82 82 80 79 79 78 76 77 78 75 75 76 76 76 77 77 79 77 74 73 72 71 70 69 69 67 66
71 70 72 77 81 83 85 85 86 85 86 85 87 86 83 83 85 87 86 87 87 85 83 81 80 81 81 81 81 80 79 81 80 81 79 80 72 62 60 66 75 78 67 62 63 73 81 79 77 79 81 81 79 77 73 75 72 73 65 71 63 69 70
74 75 77 82 82 82 83 83 84 84 84 84 84 84 84 86 86 88 90 88 86 84 81 80 82 83 83 83 83 83 82 81 83 82 80 74 69 67 62 52 42 55 73 69 57 48 50 58 73 71 76 80 71 72 78 77 77 62 57 55 54 55 59
73 77 79 81 80 80 80 81 82 82 82 83 84 85 86 86 88 88 88 86 85 84 82 82 81 82 84 84 84 82 82 82 82 80 76 75 74 72 70 66 60 44 42 49 48 44 42 41 42 45 51 69 77 61 55 62 54 53 52 51 51 50 51
71 76 78 81 80 79 79 80 82 82 82 84 85 86 86 88 88 86 87 86 85 84 82 82 81 82 83 84 82 77 78 82 81 80 77 75 74 73 71 70 66 62 46 41 44 43 41 41 40 41 44 48 59 66 61 51 48 48 48 47 46 45 44
MSLP
1000.47 1001.15 1001.31 1001.51 1001.87 1002.15 1002.15 1002.27 1002.47 1002.99 1003.11 1003.43 1003.95 1004.43 1004.75 1004.87 1005.03 1005.35 1005.75 1006.23 1006.87 1007.43 1007.55 1007.71 1008.03 1008.31 1008.75 1009.03 1009.23 1009.47 1009.71 1010.07 1010.35 1010.75 1011.07 1011.27 1011.39 1011.63 1012.03 1012.23 1012.59 1012.79 1012.91 1013.27 1013.31 1013.43 1013.35 1013.35 1013.71 1013.95 1014.07 1014.27 1014.51 1014.75 1014.99 1015.23 1015.43 1015.59 1015.79 1015.99 1016.19 1016.35 1016.47
1000.23 1000.47 1000.87 1000.95 1001.19 1001.27 1001.27 1001.31 1001.71 1002.19 1002.47 1002.71 1003.31 1003.95 1004.31 1004.51 1004.67 1004.99 1005.35 1005.71 1006.23 1006.75 1007.07 1007.31 1007.63 1007.91 1008.19 1008.59 1008.83 1009.11 1009.51 1009.75 1009.99 1010.31 1010.59 1010.95 1011.03 1011.23 1011.43 1011.83 1012.15 1012.43 1012.51 1012.67 1012.83 1012.95 1013.07 1013.15 1013.31 1013.59 1013.91 1013.95 1014.19 1014.35 1014.71 1015.03 1015.27 1015.55 1015.79 1015.99 1016.31 1016.43 1016.43
999.71 999.83 999.99 1000.19 1000.23 1000.35 1000.51 1000.83 1001.27 1001.47 1001.75 1002.07 1002.63 1003.23 1003.71 1004.03 1004.19 1004.51 1004.87 1005.35 1005.95 1006.35 1006.59 1006.87 1007.11 1007.43 1007.71 1008.15 1008.59 1008.83 1009.07 1009.35 1009.71 1010.03 1010.47 1010.71 1010.87 1010.95 1011.07 1011.39 1011.71 1011.99 1012.07 1012.11 1012.35 1012.63 1012.67 1012.87 1012.87 1013.07 1013.35 1013.67 1013.87 1014.15 1014.43 1014.83 1015.15 1015.43 1015.63 1015.87 1016.19 1016.43 1016.59
998.99 999.03 999.15 999.07 999.15 999.39 999.83 1000.31 1000.79 1001.11 1001.19 1001.35 1001.83 1002.39 1003.15 1003.71 1003.79 1003.99 1004.27 1004.71 1005.47 1005.99 1006.47 1006.63 1006.83 1007.07 1007.35 1007.79 1008.23 1008.47 1008.75 1008.95 1009.19 1009.55 1009.87 1010.11 1010.47 1010.55 1010.91 1011.19 1011.35 1011.55 1011.87 1011.99 1011.95 1012.11 1012.31 1012.43 1012.63 1012.75 1012.91 1013.27 1013.59 1013.87 1014.23 1014.59 1014.99 1015.27 1015.47 1015.75 1016.07 1016.23 1016.47
997.91 998.31 998.75 998.75 998.87 999.31 999.71 1000.11 1000.39 1000.55 1000.55 1000.59 1001.07 1001.71 1002.31 1002.87 1003.23 1003.55 1003.91 1004.23 1004.67 1005.39 1005.67 1006.11 1006.31 1006.51 1006.79 1007.07 1007.55 1007.87 1008.19 1008.51 1008.83 1009.07 1009.35 1009.59 1009.83 1010.15 1010.63 1010.91 1011.11 1011.27 1011.39 1011.43 1011.51 1011.79 1011.99 1012.11 1012.23 1012.47 1012.71 1012.95 1013.31 1013.67 1014.07 1014.39 1014.79 1015.07 1015.35 1015.59 1015.99 1016.07 1016.27
997.63 998.23 998.15 998.15 998.07 998.47 998.91 999.11 999.35 999.63 1000.15 1000.75 1001.03 1001.59 1001.99 1002.47 1002.83 1003.27 1003.47 1003.87 1004.35 1004.75 1005.23 1005.63 1005.95 1006.15 1006.59 1006.71 1007.03 1007.39 1007.71 1008.03 1008.31 1008.63 1008.99 1009.23 1009.51 1009.91 1010.23 1010.39 1010.67 1010.83 1010.99 1011.11 1011.15 1011.39 1011.59 1011.79 1011.91 1012.19 1012.51 1012.75 1013.07 1013.51 1013.87 1014.27 1014.51 1014.75 1015.07 1015.35 1015.71 1015.91 1016.07
997.35 997.23 997.55 997.31 997.39 997.63 998.19 998.59 998.79 998.99 999.47 1000.15 1000.55 1001.07 1001.63 1002.03 1002.47 1002.79 1003.03 1003.55 1003.91 1004.59 1004.95 1005.31 1005.47 1005.71 1006.03 1006.19 1006.59 1006.95 1007.47 1007.79 1008.03 1008.35 1008.51 1008.79 1008.95 1009.43 1009.79 1009.95 1010.11 1010.31 1010.35 1010.55 1010.83 1010.91 1011.27 1011.47 1011.63 1011.87 1012.27 1012.63 1012.99 1013.35 1013.71 1014.03 1014.31 1014.43 1014.75 1015.15 1015.55 1015.75 1015.91
995.79 996.91 996.51 996.35 996.67 996.95 997.43 997.75 997.99 998.35 998.83 999.47 1000.11 1000.55 1001.11 1001.35 1001.87 1002.35 1002.67 1002.91 1003.35 1003.79 1004.27 1004.63 1004.95 1005.15 1005.43 1005.71 1006.07 1006.51 1006.95 1007.31 1007.55 1007.83 1008.03 1008.35 1008.63 1009.15 1009.43 1009.55 1009.67 1009.79 1009.91 1010.23 1010.23 1010.35 1010.71 1010.99 1011.15 1011.51 1011.99 1012.43 1012.79 1013.07 1013.31 1013.63 1013.99 1014.15 1014.51 1014.99 1015.35 1015.63 1015.71
994.55 995.03 995.39 995.71 996.19 996.63 996.95 997.39 997.79 998.11 998.63 999.35 999.71 999.95 1000.55 1001.07 1001.27 1001.63 1002.07 1002.47 1002.83 1003.27 1003.63 1003.67 1004.03 1004.35 1004.87 1005.31 1005.75 1006.11 1006.39 1006.79 1007.23 1007.39 1007.63 1007.95 1008.39 1008.79 1008.87 1009.03 1009.19 1009.19 1009.55 1009.75 1009.91 1009.99 1010.23 1010.55 1010.83 1011.31 1011.71 1012.07 1012.39 1012.71 1012.95 1013.27 1013.63 1013.87 1014.23 1014.67 1015.03 1015.35 1015.51
994.71 995.15 995.23 995.51 995.71 996.15 996.47 997.19 997.63 997.91 998.47 999.15 999.63 999.75 999.99 1000.35 1000.71 1000.99 1001.35 1001.75 1002.15 1002.67 1002.99 1003.19 1003.35 1003.75 1004.31 1004.87 1005.27 1005.55 1006.03 1006.47 1006.67 1006.95 1007.19 1007.71 1007.91 1008.15 1008.15 1008.27 1008.55 1008.75 1009.11 1009.31 1009.43 1009.75 1009.87 1010.11 1010.51 1010.87 1011.27 1011.71 1012.07 1012.39 1012.67 1012.99 1013.35 1013.67 1013.95 1014.27 1014.63 1014.99 1015.23
994.87 995.23 995.67 996.03 996.07 996.23 996.51 997.19 997.83 997.83 997.83 998.47 998.91 999.11 999.51 1000.07 1000.47 1000.67 1000.95 1001.15 1001.55 1001.91 1002.15 1002.47 1002.59 1003.15 1003.75 1004.23 1004.79 1005.15 1005.63 1005.99 1006.15 1006.51 1006.91 1007.23 1007.23 1007.35 1007.47 1007.71 1008.03 1008.23 1008.55 1008.79 1008.99 1009.07 1009.47 1009.83 1010.07 1010.51 1010.87 1011.27 1011.67 1012.03 1012.31 1012.63 1012.99 1013.43 1013.71 1013.87 1014.11 1014.47 1014.75
994.99 995.27 995.59 995.67 995.87 996.19 996.75 996.95 997.23 997.55 997.83 998.11 998.43 998.67 999.11 999.55 999.91 1000.15 1000.39 1000.55 1000.67 1001.23 1001.59 1001.87 1001.91 1002.43 1003.15 1003.67 1004.27 1004.75 1005.15 1005.39 1005.55 1005.91 1006.35 1006.55 1006.63 1006.75 1006.83 1006.99 1007.39 1007.71 1007.91 1008.03 1008.43 1008.71 1009.07 1009.51 1009.79 1010.07 1010.51 1010.79 1011.15 1011.47 1011.83 1012.11 1012.51 1012.95 1013.27 1013.47 1013.75 1014.07 1014.35
994.63 995.07 994.99 995.39 995.79 996.15 996.51 996.99 997.23 997.19 997.19 997.47 997.75 998.07 998.51 999.03 999.43 999.67 999.99 1000.23 1000.15 1000.35 1000.79 1001.11 1001.43 1001.87 1002.59 1003.15 1003.59 1004.11 1004.51 1004.71 1004.99 1005.31 1005.63 1005.87 1005.99 1006.11 1006.31 1006.51 1006.67 1006.99 1007.27 1007.31 1007.67 1008.27 1008.71 1009.03 1009.43 1009.71 1010.03 1010.39 1010.71 1011.11 1011.39 1011.71 1012.03 1012.47 1012.83 1013.11 1013.39 1013.75 1014.11
994.63 994.99 994.95 995.07 995.55 996.03 996.51 996.55 996.55 996.75 996.83 996.95 997.27 997.51 997.91 998.35 998.75 999.19 999.55 999.83 999.75 999.79 1000.11 1000.39 1000.91 1001.47 1002.03 1002.59 1003.07 1003.51 1003.83 1004.03 1004.31 1004.67 1004.87 1005.11 1005.43 1005.71 1005.87 1006.03 1006.15 1006.35 1006.63 1006.95 1007.43 1007.75 1008.03 1008.47 1008.91 1009.23 1009.63 1010.03 1010.35 1010.67 1011.03 1011.39 1011.67 1012.03 1012.39 1012.75 1013.07 1013.47 1013.87
994.71 994.91 995.07 995.27 995.55 995.63 995.83 996.19 996.23 996.35 996.47 996.55 996.71 997.23 997.51 997.91 998.31 998.67 999.03 999.11 999.27 999.15 999.35 999.63 1000.39 1000.99 1001.59 1002.23 1002.71 1002.91 1003.03 1003.43 1003.79 1004.03 1004.35 1004.67 1005.11 1005.39 1005.59 1005.71 1005.79 1005.91 1006.35 1006.75 1007.07 1007.31 1007.55 1007.87 1008.43 1008.99 1009.47 1009.75 1010.03 1010.43 1010.75 1011.11 1011.35 1011.59 1011.99 1012.51 1012.87 1013.15 1013.51
994.47 994.63 994.95 995.31 995.59 995.59 995.67 995.79 995.87 996.07 996.27 996.47 996.59 996.91 997.23 997.55 997.91 998.19 998.59 998.79 998.83 998.91 998.75 999.19 999.95 1000.55 1000.99 1001.59 1001.95 1002.15 1002.47 1002.87 1003.31 1003.67 1003.99 1004.43 1004.79 1004.95 1005.07 1005.27 1005.47 1005.75 1006.15 1006.51 1006.75 1007.11 1007.39 1007.67 1008.19 1008.59 1009.07 1009.51 1009.87 1010.23 1010.51 1010.83 1010.99 1011.23 1011.59 1011.91 1012.35 1012.83 1013.11
993.51 993.39 993.87 994.79 995.11 995.15 995.27 995.47 995.67 995.87 996.11 996.31 996.39 996.55 996.79 997.11 997.39 997.67 997.99 998.23 998.39 998.55 998.31 998.71 999.59 1000.11 1000.51 1001.03 1001.19 1001.55 1001.91 1002.43 1002.87 1003.23 1003.71 1003.95 1004.23 1004.51 1004.83 1005.07 1005.31 1005.71 1006.07 1006.39 1006.71 1007.03 1007.27 1007.63 1008.23 1008.51 1008.79 1009.23 1009.59 1010.03 1010.31 1010.51 1010.67 1011.03 1011.43 1011.71 1012.03 1012.43 1012.79
993.19 993.35 993.47 993.79 994.19 994.59 995.07 995.39 995.63 995.83 995.95 995.95 996.03 996.19 996.51 996.87 997.07 997.39 997.67 997.63 997.75 997.79 997.71 998.27 998.87 999.47 999.95 1000.19 1000.63 1000.99 1001.43 1001.87 1002.35 1002.95 1003.39 1003.75 1004.15 1004.43 1004.71 1005.07 1005.51 1005.95 1006.27 1006.59 1006.87 1007.03 1007.23 1007.71 1008.07 1008.39 1008.79 1009.19 1009.59 1009.87 1010.03 1010.23 1010.39 1010.83 1011.19 1011.51 1011.87 1012.11 1012.43
993.07 992.91 993.23 993.35 993.83 994.35 994.59 994.83 994.99 995.15 995.15 995.31 995.51 995.67 995.71 996.03 996.67 997.11 997.07 997.15 997.03 997.15 997.51 997.83 998.23 998.87 999.39 999.63 1000.03 1000.47 1000.91 1001.39 1002.07 1002.71 1003.23 1003.59 1003.83 1004.19 1004.63 1005.07 1005.51 1005.91 1006.23 1006.59 1006.75 1007.07 1007.59 1007.87 1008.19 1008.51 1008.67 1009.11 1009.55 1009.75 1009.87 1010.03 1010.35 1010.75 1011.15 1011.47 1011.79 1012.03 1012.23
992.55 992.59 992.51 992.67 993.15 993.47 993.67 993.91 994.11 994.27 994.35 994.51 994.63 994.59 994.75 995.19 995.87 996.23 996.31 996.51 996.75 997.11 997.31 997.55 997.87 998.31 998.83 999.15 999.63 1000.11 1000.59 1001.15 1001.87 1002.55 1003.03 1003.39 1003.79 1004.15 1004.59 1005.03 1005.47 1005.71 1005.91 1006.27 1006.63 1007.19 1007.67 1007.95 1008.31 1008.55 1008.79 1009.03 1009.39 1009.67 1009.83 1009.99 1010.31 1010.67 1011.07 1011.39 1011.71 1011.95 1012.23
992.43 992.27 992.31 992.15 992.87 993.11 993.59 993.63 993.71 993.95 994.15 994.15 994.11 994.23 994.63 995.15 995.35 995.79 996.15 996.23 996.55 996.67 997.11 997.31 997.67 998.11 998.51 999.03 999.43 999.99 1000.63 1001.07 1001.71 1002.35 1002.87 1003.31 1003.83 1004.23 1004.63 1004.99 1005.35 1005.67 1005.91 1006.23 1006.75 1007.27 1007.67 1007.95 1008.31 1008.51 1008.71 1008.95 1009.27 1009.59 1009.79 1009.83 1010.15 1010.55 1010.91 1011.31 1011.63 1011.87 1012.19
991.83 991.75 991.87 991.55 992.31 992.27 992.87 992.87 993.19 993.43 993.63 993.27 993.63 993.99 994.15 994.59 994.71 995.39 995.79 995.67 996.15 996.55 996.91 997.31 997.75 998.19 998.51 999.23 999.67 1000.19 1000.51 1001.07 1001.75 1002.35 1002.87 1003.39 1003.91 1004.35 1004.83 1005.03 1005.39 1005.75 1005.83 1006.15 1006.51 1006.79 1007.19 1007.59 1007.87 1008.39 1008.71 1008.91 1009.23 1009.55 1009.83 1009.75 1010.07 1010.39 1010.79 1011.11 1011.39 1011.71 1012.11
990.51 990.59 990.63 990.59 990.59 991.15 991.23 991.35 991.91 992.15 992.71 993.03 993.19 993.51 993.75 993.75 994.19 994.87 995.31 995.67 995.83 996.27 996.75 997.19 997.87 998.19 998.59 999.31 999.71 1000.11 1000.51 1000.95 1001.63 1002.31 1002.83 1003.27 1003.83 1004.35 1004.67 1005.03 1005.31 1005.47 1005.55 1006.11 1006.31 1006.67 1007.03 1007.39 1007.67 1007.99 1008.43 1008.79 1009.11 1009.47 1009.71 1009.83 1010.07 1010.35 1010.59 1010.91 1011.11 1011.63 1011.95
989.79 989.79 989.79 989.71 989.63 990.07 990.67 990.83 990.91 991.15 991.95 992.59 992.79 992.71 992.83 993.11 993.75 994.51 995.15 995.39 995.55 996.11 996.67 997.23 997.79 997.95 998.43 999.19 999.59 999.91 1000.31 1000.79 1001.35 1002.03 1002.55 1003.19 1003.75 1004.11 1004.43 1004.67 1004.91 1005.27 1005.35 1005.91 1006.23 1006.43 1006.63 1006.91 1007.35 1007.71 1008.07 1008.59 1008.99 1009.23 1009.63 1009.63 1009.91 1010.19 1010.43 1010.63 1010.99 1011.35 1011.63
989.39 989.47 989.39 989.39 989.47 989.79 990.27 990.23 990.35 990.75 991.35 991.95 992.63 992.43 992.43 992.79 993.43 994.35 995.03 994.99 995.23 995.75 996.35 996.95 997.39 997.67 998.19 998.79 999.31 999.83 1000.27 1000.71 1001.27 1001.87 1002.47 1003.15 1003.51 1003.87 1004.35 1004.71 1005.07 1005.23 1005.39 1005.71 1005.95 1006.15 1006.19 1006.47 1006.95 1007.47 1007.79 1008.03 1008.35 1008.67 1009.11 1009.27 1009.71 1010.15 1010.39 1010.71 1011.07 1011.31 1011.43
989.31 989.11 988.95 988.91 988.75 988.83 989.23 989.75 990.27 990.79 991.39 991.99 992.15 991.75 992.03 992.51 993.35 994.19 994.67 994.71 994.75 995.47 995.95 996.19 996.59 996.99 997.55 998.39 999.23 999.79 1000.27 1000.75 1001.43 1001.95 1002.51 1003.15 1003.59 1003.99 1004.43 1004.63 1004.95 1005.27 1005.59 1005.83 1006.07 1006.31 1006.27 1006.35 1006.67 1007.23 1007.55 1007.71 1008.03 1008.43 1008.71 1009.03 1009.59 1010.07 1010.43 1010.75 1011.03 1011.15 1011.23
989.35 988.87 988.71 988.63 988.75 988.91 989.71 989.99 990.35 990.79 990.95 991.31 991.43 991.43 991.67 992.31 993.27 994.07 994.35 994.51 994.79 995.15 995.19 995.27 995.75 996.51 997.35 998.35 999.23 1000.03 1000.59 1000.99 1001.55 1002.23 1002.75 1003.19 1003.63 1003.91 1004.15 1004.35 1004.75 1005.03 1005.39 1005.83 1006.11 1006.55 1006.71 1006.67 1006.79 1007.11 1007.35 1007.47 1007.79 1008.15 1008.47 1008.59 1009.23 1009.87 1010.23 1010.55 1010.79 1010.99 1011.07
989.91 989.27 987.87 988.31 988.59 988.99 989.55 989.87 990.31 990.63 990.79 991.03 991.23 991.19 991.55 992.27 993.27 993.87 994.27 994.63 994.91 994.75 994.63 995.07 995.71 996.43 997.39 998.35 999.31 1000.03 1000.59 1001.11 1001.51 1001.91 1002.43 1002.71 1003.11 1003.71 1004.11 1004.27 1004.55 1004.95 1005.31 1005.43 1005.83 1006.63 1006.95 1006.83 1006.91 1007.15 1007.43 1007.55 1007.75 1008.07 1008.39 1008.51 1008.79 1009.47 1010.03 1010.19 1010.55 1010.79 1010.91
990.23 990.87 990.67 989.63 989.55 989.03 989.47 990.23 990.67 990.75 990.83 990.83 990.87 990.99 991.43 992.15 993.31 993.95 994.43 995.03 995.07 994.71 994.79 995.19 995.87 996.75 997.63 998.47 999.15 999.71 1000.35 1000.83 1001.15 1001.63 1002.11 1002.63 1002.95 1003.47 1003.99 1004.07 1004.31 1004.71 1005.03 1005.39 1005.95 1006.59 1006.87 1006.83 1006.91 1007.19 1007.55 1007.79 1008.03 1008.15 1008.31 1008.47 1008.79 1009.07 1009.67 1010.15 1010.43 1010.71 1010.95
990.39 990.39 990.63 990.31 989.91 989.75 989.63 990.23 990.47 990.71 990.63 990.55 990.67 990.95 991.47 992.23 993.51 994.11 994.71 995.19 994.83 994.91 995.15 995.59 996.23 996.99 997.95 998.71 999.35 999.99 1000.63 1001.19 1001.75 1002.15 1002.55 1002.99 1003.23 1003.67 1004.23 1004.59 1004.79 1004.95 1005.11 1005.35 1005.95 1006.55 1006.83 1006.91 1006.95 1007.23 1007.55 1007.91 1008.19 1008.15 1008.11 1008.23 1008.55 1008.95 1009.19 1009.83 1010.35 1010.67 1010.95
990.55 990.75 990.59 990.95 990.43 990.31 990.19 990.47 990.83 990.87 990.91 990.87 991.03 991.27 991.75 992.35 993.39 994.31 995.03 994.95 994.79 995.51 995.87 996.31 996.91 997.75 998.63 999.27 999.79 1000.39 1000.79 1001.23 1001.71 1002.03 1002.39 1003.03 1003.51 1004.11 1004.55 1004.91 1005.03 1005.31 1005.31 1005.59 1006.03 1006.35 1006.63 1006.75 1006.87 1007.15 1007.31 1007.55 1007.95 1008.07 1008.19 1008.47 1008.67 1009.19 1009.67 1009.95 1010.43 1010.75 1011.07
990.39 990.43 990.51 990.43 990.63 990.87 990.67 990.79 990.99 991.15 991.59 991.63 991.63 992.07 992.35 992.75 993.31 994.51 994.91 994.79 995.23 995.71 996.27 996.83 997.55 998.35 999.03 999.55 1000.03 1000.55 1001.07 1001.71 1001.91 1002.15 1002.63 1003.27 1003.67 1004.07 1004.39 1004.95 1005.23 1005.51 1005.67 1005.95 1006.35 1006.55 1006.75 1006.95 1006.95 1007.19 1007.35 1007.59 1007.67 1007.91 1008.15 1008.55 1008.91 1009.55 1009.99 1010.31 1010.71 1010.99 1011.23
993.11 992.95 993.27 993.75 993.63 991.75 991.11 991.07 991.19 991.55 992.03 992.55 992.27 992.47 992.87 993.39 993.83 994.35 994.71 995.23 995.51 996.03 996.51 997.15 997.83 998.55 999.11 999.71 1000.23 1000.67 1001.27 1001.71 1001.91 1002.31 1002.95 1003.55 1003.87 1004.15 1004.43 1004.71 1005.11 1005.47 1005.75 1006.03 1006.35 1006.67 1006.95 1006.99 1007.07 1007.27 1007.35 1007.39 1007.39 1007.55 1007.95 1008.63 1008.99 1009.39 1009.83 1010.11 1010.47 1010.79 1011.31
993.63 993.91 994.75 994.99 993.51 991.67 991.35 991.51 991.71 992.07 992.51 993.15 993.11 993.11 993.43 993.83 994.43 994.63 994.99 995.43 995.79 996.19 996.67 997.35 997.91 998.59 999.31 999.91 1000.47 1000.99 1001.27 1001.63 1001.95 1002.59 1003.23 1003.75 1003.87 1004.03 1004.31 1004.59 1004.71 1005.31 1005.79 1006.03 1006.19 1006.71 1006.99 1006.91 1006.91 1006.99 1006.99 1007.15 1007.03 1007.27 1007.91 1008.43 1008.75 1009.07 1009.39 1009.71 1009.95 1010.35 1010.63
994.43 995.55 995.99 994.99 993.31 992.03 991.79 991.95 992.27 992.59 992.95 993.27 993.31 993.75 994.43 994.71 994.87 995.07 995.51 995.71 995.87 996.19 996.83 997.59 998.23 998.91 999.55 1000.19 1000.79 1001.27 1001.47 1001.75 1002.27 1002.79 1003.43 1003.79 1004.71 1005.27 1005.63 1005.47 1004.91 1005.15 1006.11 1006.67 1006.63 1006.23 1006.19 1006.39 1006.55 1006.35 1006.27 1006.43 1006.59 1007.11 1007.87 1008.03 1008.55 1008.55 1008.51 1008.87 1009.19 1009.55 1010.03
995.15 995.35 994.71 993.03 992.27 992.19 992.47 992.79 993.11 993.47 993.79 994.03 994.11 994.39 994.67 994.83 995.07 995.15 995.31 995.63 996.07 996.43 997.19 997.83 998.35 998.99 999.63 999.95 1000.43 1000.91 1001.39 1001.79 1002.23 1002.71 1003.43 1004.43 1005.03 1005.31 1006.15 1006.79 1006.55 1005.87 1005.75 1006.51 1007.07 1006.83 1006.15 1005.99 1006.35 1006.63 1006.23 1006.23 1006.79 1006.75 1007.03 1007.59 1007.55 1007.83 1008.35 1008.71 1009.11 1009.47 1009.63
995.19 993.99 993.51 993.15 993.39 993.59 993.75 993.87 993.91 994.15 994.47 994.51 994.31 994.47 994.71 994.99 995.07 995.23 995.59 995.95 996.31 996.75 997.35 997.83 998.47 998.95 999.27 999.67 999.99 1000.35 1000.75 1001.23 1001.75 1002.47 1003.59 1004.35 1004.71 1005.07 1005.55 1006.19 1006.59 1007.35 1007.59 1007.47 1007.47 1007.07 1006.91 1006.99 1006.99 1006.75 1006.55 1006.23 1006.63 1007.31 1006.95 1006.75 1007.35 1007.79 1008.31 1008.75 1009.19 1009.47 1009.63
996.11 994.55 994.03 993.87 994.11 994.43 994.67 994.71 994.83 994.99 995.03 994.71 994.59 994.71 994.83 995.11 995.31 995.71 995.99 996.27 996.59 996.95 997.39 997.75 998.27 998.71 998.95 999.19 999.71 1000.47 1000.83 1001.11 1001.39 1001.99 1003.23 1004.11 1004.51 1004.83 1005.35 1005.79 1006.47 1007.03 1007.83 1007.95 1007.55 1007.55 1007.39 1007.27 1007.15 1007.15 1007.03 1006.91 1006.95 1007.23 1007.79 1007.91 1007.83 1008.07 1008.51 1008.87 1009.19 1009.47 1009.71
Wind_Speed
19 17 16 14 15 16 16 18 21 20 18 17 17 19 21 17 16 15 15 17 18 17 17 16 16 14 15 13 13 12 11 10 9 9 9 8 7 7 7 8 8 7 7 7 6 7 4 7 6 8 6 6 6 6 6 4 4 4 4 4 2 3 5
19 18 17 18 18 19 21 18 17 17 16 16 17 19 19 18 16 16 15 16 19 19 18 17 16 15 15 13 12 12 13 12 11 9 9 8 8 7 8 8 8 8 7 7 7 6 6 7 8 8 9 7 7 7 7 6 5 4 4 4 4 3 3
20 19 19 18 17 17 19 17 15 16 18 17 18 19 20 18 17 16 17 17 18 18 17 18 17 15 14 14 13 14 14 12 12 12 11 10 10 10 8 8 8 8 7 7 8 8 7 7 7 8 9 8 8 7 7 7 6 5 5 5 4 5 4
19 18 18 17 17 16 16 16 17 18 19 20 20 21 19 18 17 16 16 17 19 18 18 17 17 16 15 15 14 14 14 14 13 12 12 11 11 9 8 8 7 7 7 7 8 8 8 7 9 7 9 8 8 8 8 7 7 6 5 6 6 5 4
22 22 19 17 15 13 15 16 17 18 22 23 20 18 19 18 18 17 16 17 20 20 20 19 17 16 14 15 13 12 14 15 13 12 11 10 11 10 10 11 9 9 9 9 8 9 9 9 10 9 9 8 8 8 9 8 8 8 6 5 6 6 6
21 19 17 16 15 14 16 19 20 22 21 21 20 18 20 22 21 24 21 18 17 19 17 18 18 16 15 16 14 13 13 13 12 12 11 11 11 11 11 10 11 11 12 10 9 9 11 10 9 10 11 10 9 9 9 9 8 9 8 7 6 6 6
19 20 17 16 15 15 17 18 19 19 17 18 17 17 19 21 23 22 21 21 22 20 22 22 20 18 16 15 14 15 15 15 14 14 13 13 12 12 11 10 12 11 10 10 10 11 12 11 11 11 10 11 9 9 9 9 9 9 8 7 7 5 5
19 18 17 16 16 15 15 15 15 13 11 12 17 20 22 21 21 23 23 21 22 22 21 22 20 17 16 15 15 16 16 16 14 14 13 14 12 12 12 12 11 12 10 12 11 12 13 13 12 11 11 11 10 9 10 10 10 9 8 8 8 8 6
18 22 19 18 16 15 15 13 13 12 12 11 15 17 21 20 22 22 23 22 21 22 22 22 21 18 15 15 15 16 15 15 14 14 16 16 13 15 16 14 12 13 13 12 12 12 12 13 12 10 11 10 10 10 10 11 11 9 8 9 10 9 8
18 13 14 15 14 15 12 10 12 12 14 16 17 16 20 20 19 20 21 22 22 23 23 22 20 19 18 17 17 17 15 15 14 19 19 18 15 18 17 17 15 13 13 13 12 13 12 12 12 11 12 12 11 11 10 11 10 9 9 9 10 10 9
17 14 14 15 14 13 12 13 14 12 14 14 16 17 16 17 18 20 20 21 22 21 22 21 19 20 19 20 21 20 16 18 18 18 18 18 17 20 20 18 17 14 15 14 15 14 13 12 12 11 12 12 12 12 12 12 11 11 10 9 9 10 9
14 16 15 18 15 13 14 13 14 13 13 16 16 16 15 17 18 20 18 21 21 21 21 21 20 20 20 20 20 17 19 18 19 20 19 19 18 20 20 18 17 16 15 16 16 13 13 12 11 12 13 12 12 12 13 12 12 12 11 11 10 9 9
13 9 12 15 15 12 11 11 13 14 14 13 17 17 15 18 19 19 16 18 21 19 19 18 17 16 19 20 21 18 18 19 18 16 18 17 17 16 16 17 18 19 18 16 16 15 14 13 13 11 12 13 12 13 13 13 13 12 11 11 10 9 9
11 10 10 11 12 15 15 14 13 14 15 15 16 17 16 17 18 17 16 18 18 19 20 17 16 16 17 17 17 16 19 18 16 16 17 16 15 15 15 15 15 15 14 13 14 15 14 14 14 13 12 12 13 12 12 12 12 12 12 11 10 9 9
17 17 15 15 11 10 9 10 9 10 13 14 15 17 18 17 18 16 14 16 16 18 19 17 17 15 17 17 17 16 16 15 14 14 15 15 15 15 16 15 14 14 13 12 13 11 12 11 11 14 13 12 13 13 12 12 12 11 12 11 10 9 9
12 13 14 11 10 9 8 8 8 9 10 11 13 14 16 16 16 17 17 16 16 15 15 16 16 16 17 18 17 15 15 15 14 14 15 15 16 16 16 15 15 14 13 13 13 11 10 10 10 13 14 14 13 13 12 11 10 12 18 14 10 10 8
13 13 13 11 11 12 11 11 11 11 11 12 12 13 14 14 15 15 20 19 21 16 14 15 16 16 15 16 16 16 15 15 14 14 15 16 16 15 15 14 12 12 12 12 11 10 9 9 11 12 12 13 13 14 12 11 10 16 16 17 16 11 9
10 4 10 13 13 12 12 13 13 13 13 14 14 12 12 12 13 15 19 18 18 20 16 16 18 17 17 16 16 15 17 15 15 15 15 15 15 14 14 11 10 9 9 9 9 8 7 10 11 10 10 10 12 12 10 10 11 17 17 17 16 12 9
10 11 5 13 14 14 16 18 17 16 17 17 16 15 16 14 14 15 16 16 16 15 17 16 18 18 17 16 16 16 16 15 15 15 14 14 14 12 11 11 10 9 9 9 8 7 8 8 7 8 9 9 10 10 9 9 12 17 17 16 15 14 10
14 15 14 11 15 17 18 15 15 16 17 15 17 20 18 16 16 14 14 14 12 15 15 13 15 16 17 15 16 15 15 15 15 15 14 13 11 10 10 10 10 8 8 7 6 6 6 7 7 6 7 7 7 7 7 7 12 17 17 16 16 15 11
10 15 15 9 12 17 14 14 14 14 15 17 19 15 15 15 15 14 15 14 14 14 14 13 12 14 14 13 13 12 10 14 14 14 13 12 10 9 9 10 8 7 7 7 7 7 7 7 7 6 7 7 7 7 7 7 16 17 18 16 17 16 12
13 13 14 10 9 11 14 14 15 17 16 14 13 15 17 18 18 19 19 19 15 12 12 11 9 13 13 10 10 11 12 12 12 13 11 12 10 9 8 8 7 6 7 6 6 6 6 6 6 7 6 6 6 7 8 7 17 18 19 19 18 18 9
19 16 13 11 13 12 15 16 15 16 13 13 16 17 18 18 19 18 19 19 16 13 12 11 11 13 13 11 12 13 12 12 12 12 12 11 10 10 9 8 7 7 6 7 7 8 8 8 8 6 7 7 6 6 6 5 13 18 20 18 20 13 7
19 18 16 16 9 9 12 13 14 14 16 16 17 18 16 17 17 16 16 16 13 15 13 12 12 13 13 13 13 12 12 12 12 12 12 10 11 9 8 8 7 7 7 7 8 8 8 8 8 8 7 8 7 7 6 6 10 17 19 20 18 13 9
23 23 21 16 12 13 15 15 16 16 15 17 18 15 15 15 16 16 15 15 16 16 15 15 14 14 13 14 13 12 12 12 11 12 12 10 9 8 8 8 6 5 5 6 5 5 4 5 5 7 7 9 9 11 9 6 8 14 16 15 15 13 7
13 18 20 16 17 10 10 10 12 13 15 15 14 15 16 16 15 16 15 15 17 18 17 17 17 15 13 13 14 13 12 11 11 10 10 8 9 7 7 6 6 6 6 4 3 3 3 4 4 6 7 6 6 7 9 8 7 11 14 15 15 16 8
16 15 10 14 13 8 8 10 10 12 15 13 14 14 14 15 15 15 14 15 17 18 18 16 16 16 14 14 14 13 12 10 10 11 8 8 8 9 8 7 6 6 6 6 6 4 3 4 5 5 4 6 5 6 7 6 8 10 15 15 16 16 10
12 15 7 8 5 9 9 12 11 10 12 10 12 12 13 14 14 13 13 14 16 15 15 14 15 14 14 15 15 14 13 11 10 12 10 11 10 9 8 6 6 6 7 8 6 7 6 6 5 5 5 4 5 4 4 4 6 10 13 16 16 16 14
2 8 15 6 4 10 12 10 11 14 13 13 16 15 13 15 13 12 12 12 12 12 12 14 14 15 15 14 14 13 13 13 14 11 8 9 10 10 10 10 10 9 8 7 8 9 9 7 6 5 5 6 5 4 5 5 7 13 11 14 15 15 14
3 2 5 15 5 8 15 11 11 12 12 14 14 13 13 13 12 12 13 12 11 11 13 14 15 14 13 12 11 12 10 10 10 9 9 9 8 7 7 7 7 8 8 7 8 8 8 7 7 5 6 8 7 7 6 6 7 10 14 12 15 14 15
5 5 8 13 14 8 8 8 10 10 11 10 11 10 10 11 15 15 14 11 12 14 13 13 14 13 13 12 12 11 10 9 8 9 9 8 6 7 7 6 6 7 5 3 5 5 6 6 6 6 5 5 6 5 6 7 6 5 5 8 11 12 11
2 6 10 12 7 7 6 10 9 12 13 10 11 12 12 12 13 15 13 13 14 14 14 15 14 14 13 12 11 11 10 10 10 10 10 9 6 6 6 7 7 6 6 5 4 4 5 4 4 4 3 4 5 7 7 7 6 5 5 6 6 5 7
9 13 13 9 10 10 10 14 13 14 15 13 14 14 14 16 13 13 12 14 15 14 14 15 15 14 13 13 11 10 9 10 10 10 9 7 7 6 6 5 7 6 6 5 5 5 5 5 5 6 6 6 6 8 8 8 6 6 6 6 6 6 6
10 9 6 12 11 8 9 10 12 13 15 13 12 12 14 14 13 13 15 16 17 16 15 16 15 15 15 14 11 10 11 10 11 10 9 9 10 8 8 6 6 7 6 5 6 7 6 6 7 7 7 6 6 7 9 8 7 7 7 7 7 7 6
5 4 10 8 5 6 9 11 12 12 13 12 12 13 12 13 14 15 15 14 16 15 16 15 15 14 16 14 12 11 9 10 10 10 9 8 7 9 8 4 1 7 7 6 5 2 7 7 7 8 9 9 8 7 8 8 8 8 9 9 11 11 10
5 6 5 8 11 12 13 11 10 10 11 11 11 12 13 14 14 14 14 14 14 14 14 13 14 15 15 13 13 13 11 10 11 10 8 8 7 7 7 11 13 9 6 5 4 8 13 9 4 2 3 4 5 2 8 8 8 13 16 15 15 13 12
8 10 12 13 14 14 13 12 12 12 12 10 9 11 12 11 12 11 13 12 13 14 13 12 11 11 13 12 13 13 11 11 11 8 9 9 8 8 8 6 9 16 15 10 7 9 11 10 8 10 10 5 5 6 8 13 14 18 15 15 14 13 10
12 10 11 12 12 12 12 11 11 10 9 8 9 9 9 11 11 11 12 12 12 12 11 11 11 11 12 12 11 11 9 10 10 11 10 9 8 8 7 7 7 6 11 12 12 12 13 13 14 13 12 12 8 5 6 8 12 16 16 15 13 11 11
Wind_Direction
192 192 194 189 188 195 199 194 196 200 203 192 189 191 195 195 193 187 184 179 181 183 183 182 182 181 183 184 184 184 185 186 182 182 180 180 182 175 168 168 172 170 172 171 179 170 163 148 161 161 156 152 158 155 155 173 176 167 156 159 182 160 180
188 189 191 195 193 196 201 199 193 194 201 192 188 188 196 197 192 188 184 180 181 184 182 182 182 183 181 182 184 182 185 185 181 178 177 177 178 175 171 168 175 174 170 173 163 155 163 161 182 153 165 167 168 161 163 169 178 173 165 167 174 194 187
185 186 190 192 199 194 196 191 191 196 201 193 187 188 194 195 192 188 183 181 180 183 184 184 183 181 179 180 182 185 184 184 182 178 178 180 180 182 173 170 172 174 177 166 156 160 172 179 177 164 167 174 171 167 168 169 175 177 176 169 180 184 201
181 185 186 194 194 193 187 191 196 204 209 203 194 193 190 192 191 191 187 182 179 182 184 185 182 181 180 179 183 185 184 185 183 180 180 181 179 180 174 172 170 168 173 180 161 169 174 185 176 176 180 173 174 167 171 174 170 181 189 170 180 187 191
177 179 190 189 189 174 182 189 198 202 207 204 197 189 188 188 189 190 187 185 184 184 185 183 184 184 180 180 183 185 184 183 182 180 181 179 175 178 176 179 173 178 178 181 174 173 179 188 179 180 183 181 176 168 172 172 170 174 191 176 177 190 185
172 178 182 183 181 175 180 193 201 204 202 203 200 189 190 192 193 194 192 185 185 185 183 184 185 181 181 182 184 184 183 185 181 177 179 181 175 179 178 177 174 186 180 183 176 178 176 191 185 184 184 185 180 177 173 177 176 176 181 186 182 191 194
180 174 175 174 178 181 185 195 202 204 195 201 203 194 193 195 196 195 193 190 187 184 185 187 187 183 182 181 185 183 184 184 182 179 178 183 180 177 177 179 178 188 186 178 185 179 182 189 190 186 187 186 185 181 177 177 186 179 180 181 186 193 203
168 179 168 171 171 179 186 188 192 186 182 187 202 202 197 195 194 194 194 191 189 187 187 188 187 186 182 182 184 186 184 186 181 180 181 185 182 175 176 186 182 187 186 185 187 183 186 191 194 187 183 184 180 182 177 177 185 184 175 180 182 193 204
159 170 168 163 164 176 183 184 181 181 183 198 211 204 196 195 195 194 192 190 190 188 187 188 188 185 180 182 185 187 184 183 183 183 185 186 179 184 186 188 187 187 190 188 191 189 191 193 193 185 181 184 180 182 181 177 182 184 178 179 184 192 198
146 158 155 148 168 175 174 161 171 175 185 198 213 204 192 193 193 193 191 190 189 190 187 188 187 184 181 182 186 186 182 183 183 188 189 187 183 188 194 193 192 191 190 193 194 194 196 194 190 185 182 184 181 182 181 177 179 182 185 182 185 190 195
143 146 153 157 174 173 164 173 189 195 189 198 202 198 187 187 193 193 191 191 190 189 187 189 187 186 183 185 188 189 185 186 188 190 189 187 188 192 194 195 194 194 195 195 199 197 193 193 189 187 184 185 183 181 181 178 179 185 186 188 184 186 192
141 153 163 162 172 170 172 182 182 188 194 200 201 193 185 187 191 196 192 192 190 188 187 190 189 187 184 186 189 189 188 189 194 192 189 190 193 194 195 195 193 194 196 198 201 196 194 192 191 189 188 185 183 181 180 177 181 184 186 186 183 185 191
145 149 161 157 165 163 177 188 191 192 195 188 187 188 187 186 190 194 192 191 191 187 187 187 189 183 183 186 189 186 190 191 192 189 189 192 194 194 196 196 196 197 198 199 199 195 194 193 192 191 188 186 182 182 180 179 181 182 184 185 184 185 193
135 149 152 149 161 171 183 189 189 190 191 185 184 187 187 186 189 193 190 190 193 188 187 187 186 182 180 185 187 187 188 192 188 186 189 190 192 194 198 198 198 198 198 196 198 197 196 190 190 189 185 184 184 183 180 181 181 180 182 183 183 186 194
156 161 159 162 165 168 171 170 166 171 180 184 182 185 187 185 188 190 191 189 194 194 187 182 184 180 177 183 189 188 187 187 187 188 188 188 189 194 197 200 202 197 193 195 200 201 198 188 179 178 181 182 183 183 184 186 185 182 180 181 183 190 194
182 167 154 154 157 161 173 174 179 173 174 185 187 186 188 185 185 188 190 188 190 198 187 178 180 184 183 185 186 184 183 184 185 187 187 187 192 196 198 199 198 197 196 196 198 197 194 183 177 176 182 183 181 183 185 187 187 182 178 177 180 187 196
193 197 160 164 167 176 174 180 185 187 183 186 190 190 190 186 186 186 194 194 193 196 188 173 177 184 186 185 183 182 181 182 184 184 187 190 195 198 201 200 198 197 198 197 196 198 191 178 178 181 179 181 181 183 186 186 186 171 173 174 179 183 195
252 239 170 172 175 177 171 178 188 188 187 186 186 186 187 188 184 185 196 194 195 195 194 179 181 183 188 185 182 181 181 182 181 183 187 191 194 197 200 199 199 201 200 199 196 188 175 180 183 182 176 181 185 186 184 187 168 167 172 175 181 188 193
235 260 201 185 178 172 176 187 187 186 186 186 188 188 189 186 188 191 195 198 195 190 197 187 180 181 184 182 181 181 180 180 179 180 184 191 193 193 192 193 194 193 191 189 169 146 169 174 170 180 174 179 187 190 184 185 156 168 172 176 185 197 206
211 228 246 214 184 181 184 184 184 182 180 181 184 187 189 188 193 194 197 200 191 192 196 194 178 178 179 177 178 176 177 174 172 177 180 183 183 179 173 172 181 179 174 161 144 149 143 159 161 170 183 179 183 183 177 190 157 168 172 178 189 201 206
210 206 219 229 163 174 178 178 175 174 176 182 184 181 181 186 191 191 196 200 195 193 193 197 180 175 175 172 169 158 141 156 168 175 173 172 170 161 164 182 174 167 154 153 140 145 149 156 164 173 181 173 172 189 186 188 161 167 173 180 193 202 204
237 215 212 214 179 171 169 174 171 175 180 182 173 175 183 187 191 195 197 200 197 193 193 193 179 165 161 142 137 135 142 139 144 153 157 166 163 156 175 178 175 163 154 155 158 153 151 155 170 164 169 174 172 191 192 176 164 170 175 184 193 199 197
246 243 229 211 195 180 171 172 173 175 168 175 179 182 188 187 189 193 193 195 194 185 185 182 168 162 151 139 134 140 142 141 140 146 150 153 157 172 173 174 172 167 159 174 180 167 162 161 170 160 169 175 177 185 192 169 174 174 181 183 193 188 190
251 258 260 253 235 196 169 173 171 164 170 178 185 186 187 186 185 186 188 189 178 173 173 167 164 160 152 146 142 142 145 147 145 142 145 150 166 168 169 176 180 182 172 182 186 190 175 168 172 163 167 169 177 192 197 196 174 183 184 188 185 179 186
240 244 252 254 253 233 179 170 170 170 171 180 188 185 183 181 183 182 188 183 171 171 167 162 159 158 153 149 146 143 143 143 142 148 159 161 163 171 179 187 182 183 180 189 181 185 175 176 172 152 166 177 178 192 193 210 166 185 184 181 176 183 184
237 235 231 235 253 226 167 152 163 169 177 180 187 185 178 177 179 183 188 177 167 172 170 163 161 156 149 140 138 142 142 149 153 150 153 149 171 177 179 168 168 167 157 149 151 163 181 152 169 157 171 170 161 172 187 197 147 172 179 173 177 185 181
327 282 236 233 238 154 136 150 164 176 183 185 186 183 173 173 179 183 183 171 170 175 174 163 153 151 146 138 140 140 142 145 152 145 152 162 168 175 172 167 154 150 149 167 174 176 173 171 172 163 182 191 169 181 181 189 153 167 172 174 179 189 191
335 313 216 212 224 164 153 165 164 180 185 178 183 175 172 173 176 174 171 170 172 167 162 150 144 140 134 138 142 138 139 142 144 149 163 163 167 167 162 152 148 152 163 181 167 162 169 165 165 170 175 163 167 172 162 190 161 153 183 179 182 186 195
236 331 326 292 164 169 155 164 171 182 183 177 182 178 168 167 162 161 158 164 160 155 145 137 134 133 136 142 151 147 151 156 157 153 156 156 163 167 162 165 161 160 172 176 167 170 169 168 159 161 158 149 152 171 182 176 154 153 170 185 182 190 195
161 96 319 296 258 162 165 166 176 178 184 179 178 173 168 165 150 149 151 151 155 139 130 129 126 130 135 141 141 142 142 135 136 140 150 158 161 151 152 155 155 158 177 186 173 173 165 165 156 163 165 160 172 178 187 157 158 165 166 174 185 187 192
162 179 196 251 244 190 192 167 166 172 166 162 162 158 149 137 141 138 143 136 127 123 125 123 125 126 132 132 127 128 131 126 120 119 120 124 130 138 147 165 163 151 138 114 124 146 143 151 160 169 170 139 152 159 135 122 131 98 104 148 180 181 181
268 194 231 224 204 175 182 161 175 165 158 144 118 103 116 125 129 133 130 128 126 130 130 129 126 126 127 125 126 128 122 125 118 112 115 131 141 150 144 132 137 130 128 126 134 133 143 144 153 146 171 173 170 170 144 131 112 110 114 113 124 131 156
354 2 354 342 266 216 179 172 161 149 137 120 123 123 127 131 131 124 123 125 132 131 129 125 125 124 124 127 131 129 134 136 139 134 136 145 164 142 129 138 128 133 135 145 155 160 159 177 171 171 187 197 177 166 142 133 129 137 138 142 147 150 149
19 18 316 265 232 185 149 153 148 142 131 124 131 137 130 125 121 119 128 138 142 135 128 127 128 130 132 134 129 134 141 140 129 135 154 163 184 167 152 152 146 138 153 176 177 168 172 189 182 178 179 179 193 151 136 142 145 150 156 160 160 157 162
45 257 223 205 142 94 96 107 105 105 113 120 121 118 119 126 128 135 134 136 133 128 125 124 124 126 131 134 139 139 142 140 145 148 159 160 75 45 28 18 48 122 78 33 3 248 185 182 172 188 181 179 190 154 145 149 161 172 166 167 172 166 171
145 141 140 86 64 71 75 81 99 107 105 104 108 113 118 117 128 133 127 124 122 121 120 124 130 136 139 143 142 145 151 148 158 160 147 111 118 100 82 66 51 28 95 105 38 42 51 61 106 31 349 77 38 47 154 165 168 149 161 166 170 171 173
355 48 58 66 72 66 65 65 66 73 81 94 99 105 110 119 125 118 114 116 120 124 125 131 135 139 143 146 152 152 156 154 159 141 121 131 125 124 120 100 53 50 49 59 55 40 54 66 64 39 25 30 93 25 20 129 129 149 159 149 149 149 152
336 30 50 62 70 76 78 74 76 80 83 86 96 101 110 117 113 106 118 121 124 131 137 143 148 153 153 157 141 143 143 157 155 141 133 136 138 132 132 118 114 77 48 50 54 49 49 44 40 34 36 41 65 107 57 64 114 131 131 132 128 125 123